Location: Unspecified
(0.0000°N, 0.0000°E)
Time: 02:13:25
(UTC+00:00)

Vanguard 1 Rocket - Visible Passes

Search period start: 26 May 2019 00:00
Search period end: 05 June 2019 00:00
Orbit: 652 x 4224 km, 34.3° (Epoch: 24 May)

Date Brightness Start Highest point End Pass type
(mag) Time Alt. Az. Time Alt. Az. Time Alt. Az.
26 May 10.9 05:13:41 10° N 05:21:24 19° NE 05:32:39 10° E visible
26 May 8.7 20:33:35 10° SW 20:39:26 39° SW 20:39:26 39° SW visible
27 May 8.1 19:19:58 10° SW 19:30:47 51° SSE 19:32:57 39° ESE visible
28 May 10.8 05:15:46 10° N 05:24:19 25° NE 05:37:52 10° E visible
28 May 9.4 18:05:55 10° SW 18:18:15 34° SSE 18:25:14 10° E visible
28 May 8.4 20:36:33 10° WSW 20:43:54 48° W 20:43:54 48° W visible
29 May 10.9 04:09:18 10° NNE 04:11:44 11° NE 04:14:28 10° NE visible
29 May 8.0 19:22:18 10° SW 19:33:58 74° SE 19:37:32 30° ENE visible
30 May 10.6 05:18:01 10° NNW 05:27:00 32° NE 05:42:23 10° E visible
30 May 9.0 18:07:51 10° SW 18:21:46 46° SSE 18:29:04 10° E visible
30 May 8.8 20:39:54 10° WSW 20:47:56 36° NW 20:48:36 35° NNW visible
31 May 10.8 04:09:46 10° N 04:14:51 15° NE 04:21:40 10° ENE visible
31 May 8.2 19:24:55 10° WSW 19:36:57 78° NW 19:42:18 15° NE visible
01 Jun 10.4 05:20:26 10° NNW 05:29:33 41° NE 05:46:16 10° ESE visible
01 Jun 8.8 18:09:58 10° SW 18:25:03 63° SSE 18:32:34 10° ENE visible
01 Jun 9.5 20:43:45 10° W 20:50:38 24° NW 20:53:24 18° N visible
02 Jun 10.5 04:11:27 10° N 04:17:42 21° NE 04:27:07 10° E visible
02 Jun 8.9 19:27:50 10° WSW 19:39:43 55° NW 19:45:59 10° NE visible
03 Jun 10.1 05:23:00 10° NNW 05:32:03 53° NE 05:49:39 10° ESE visible
03 Jun 8.8 18:12:17 10° SW 18:28:08 85° SE 18:35:48 10° NE visible
03 Jun 10.0 20:48:20 10° W 20:53:21 16° NW 20:57:07 10° N visible
04 Jun 10.3 04:13:34 10° NNW 04:20:22 28° NE 04:31:41 10° E visible
04 Jun 9.6 19:31:09 10° WSW 19:42:22 39° NW 19:48:38 10° NNE visible
